CAPE
157 69 33 11 21 50 38 7 9 21 32 40 95 72 90 106 83 108 80 69 122 209 373 269 183 130 152 196 276 315 300 176 59 130 146 204 287 22 121 259 287 183 122 123
100 4 7 27 44 48 57 44 59 17 56 48 95 116 49 116 164 177 127 107 302 360 442 504 340 293 307 283 338 380 391 332 214 123 148 189 294 300 178 233 338 452 315 143
198 41 20 47 49 50 69 70 78 103 139 133 203 138 86 199 337 282 224 212 148 99 257 600 564 499 436 470 456 504 504 567 587 438 319 243 279 352 395 222 349 432 507 480
202 85 12 44 98 68 82 84 78 143 166 140 209 30 5 86 130 231 408 407 343 305 229 394 683 664 635 610 614 564 549 620 667 696 620 519 533 476 484 323 352 329 315 469
19 97 97 50 22 97 31 43 33 178 189 135 95 131 109 24 98 178 219 307 394 476 502 497 439 546 662 664 761 730 595 579 625 682 740 711 591 549 490 338 277 275 290 289
161 51 12 63 60 125 41 16 29 218 113 31 0 130 63 64 103 157 222 352 473 523 529 600 635 544 576 853 866 741 778 640 584 626 695 730 517 516 438 305 149 100 161 295
64 0 18 27 21 26 10 0 0 0 0 0 0 122 113 76 66 150 260 408 362 335 586 617 686 764 868 850 825 932 854 820 660 583 626 676 605 507 462 327 337 299 309 449
125 14 19 25 19 38 23 0 0 0 0 0 0 4 26 66 135 175 213 375 46 170 366 461 633 757 824 893 927 967 919 780 711 730 706 658 552 630 338 151 201 310 545 513
14 30 2 15 16 15 1 0 0 0 0 0 0 3 4 24 83 133 243 255 50 234 544 759 878 996 946 866 881 904 873 805 695 658 645 650 830 811 363 207 70 282 230 399
115 3 0 0 0 0 23 0 0 0 0 0 0 0 0 11 118 162 206 191 15 317 783 876 715 598 588 756 835 914 964 1000 1047 1070 1068 1092 1071 793 403 236 125 126 172 397
213 0 0 0 0 0 0 0 0 0 0 0 0 0 0 0 4 122 93 31 50 675 737 671 690 804 894 930 985 1008 980 1018 1072 1148 1258 1281 1183 1036 815 710 509 324 226 398
129 7 0 0 0 0 0 0 0 0 0 0 0 0 0 0 0 0 55 0 96 776 763 785 890 1033 1128 1137 1074 1196 1416 1385 1293 928 357 506 641 937 932 921 675 410 376 307
3 0 0 0 0 0 0 0 0 0 0 0 0 0 0 0 0 0 4 3 235 930 963 1092 1147 1281 1396 1391 1288 1236 1253 1189 582 235 8 54 375 480 459 745 792 942 536 249
0 0 0 0 0 0 0 0 0 0 0 0 0 0 0 0 0 0 0 234 688 1050 1124 974 921 1114 1177 1172 993 1009 992 650 433 194 1 0 9 272 715 434 902 708 438 24
0 0 0 0 0 0 0 0 0 0 0 0 0 0 0 0 0 0 214 663 938 943 896 817 768 670 688 675 796 746 662 536 485 155 5 0 82 376 843 545 1071 700 430 6
0 0 0 0 0 0 0 0 0 0 0 0 0 0 0 0 0 186 630 882 951 926 889 807 751 726 727 877 1014 924 598 663 489 139 54 0 199 992 1109 925 686 668 248 0
0 0 0 0 0 0 0 0 0 0 0 0 0 0 0 0 0 199 541 749 838 811 730 703 876 1101 1182 1130 1055 937 880 875 667 233 39 19 123 628 730 1070 587 522 67 37
0 0 0 0 0 0 0 0 0 0 0 0 0 0 0 0 28 265 426 414 421 84 243 679 768 879 1053 1018 930 925 1042 1102 813 397 103 1 222 204 534 677 447 515 215 74
0 0 0 0 0 0 0 0 4 0 0 0 0 1 0 0 23 215 170 114 141 313 499 307 284 541 711 681 565 701 1071 1218 992 560 164 7 79 153 550 683 920 373 172 317
0 0 0 0 0 0 0 1 22 22 9 3 2 0 0 27 70 48 30 417 460 383 62 32 34 5 31 28 331 840 1205 1206 1111 664 243 16 0 0 148 427 448 628 423 365
0 0 0 0 0 0 0 0 0 0 0 0 0 0 0 7 0 35 67 55 180 180 58 45 8 5 286 557 713 1052 1196 1308 1110 822 340 46 0 0 6 319 326 357 571 354
0 0 0 0 0 0 0 0 0 0 0 0 0 0 0 3 68 104 64 34 47 62 101 69 41 208 629 814 1024 1228 1362 1376 1075 900 491 203 4 0 0 6 10 182 200 348
0 0 0 0 0 0 0 0 0 0 0 0 0 0 0 40 50 46 51 61 44 64 73 78 69 300 606 767 1099 1318 1530 1333 1046 903 688 381 99 0 0 0 4 14 43 28
0 0 0 0 0 0 0 0 0 0 0 0 0 0 0 0 2 12 13 22 29 18 19 46 92 173 405 673 1002 1291 1541 1363 1062 881 765 507 173 11 0 0 0 1 8 15
0 0 0 0 0 0 0 0 0 0 0 0 0 0 0 0 0 4 14 22 8 49 119 80 104 158 503 847 1103 1351 1653 1491 1233 811 752 612 274 53 6 0 0 0 8 19
0 0 0 0 0 0 0 0 0 0 0 0 0 0 6 19 33 47 57 60 90 105 184 180 139 162 474 950 1221 1423 1608 1575 1350 1019 831 604 416 115 38 16 8 9 9 23
CIN
-122 -140 -105 -38 -67 -99 -79 -114 -82 -105 -114 -17 -39 -51 -132 -210 -85 -67 -179 -186 -107 -62 -14 -32 -42 -22 -30 -27 -17 -14 -16 -174 -257 -236 -240 -189 -159 -123 -204 -136 -97 -111 -128 -132
-76 -51 -20 -45 -56 -57 -44 -55 -59 -134 -155 -57 -35 -53 -125 -156 -100 -91 -115 -286 -210 -133 -82 -50 -34 -10 -15 -23 -25 -23 -10 -25 -57 -134 -278 -218 -118 -130 -135 -67 -69 -66 -73 -103
-58 -47 -18 -32 -127 -141 -65 -67 -90 -81 -140 -65 -40 -58 -61 -318 -288 -226 -100 -160 -50 -65 -69 -64 -42 -36 -16 -13 -6 -8 -10 -7 -7 -13 -31 -150 -207 -141 -138 -138 -95 -79 -42 -45
-75 -50 -20 -85 -90 -139 -87 -91 -168 -120 -143 -69 -79 -33 -70 -29 -43 -128 -211 -186 -202 -175 -71 -56 -71 -69 -61 -36 -25 -23 -22 -12 -5 -11 -6 -19 -31 -49 -153 -146 -91 -80 -75 -58
-28 -84 -92 -33 -30 -147 -30 -49 -266 -140 -125 -80 -110 -94 -52 -167 -44 -49 -60 -69 -98 -146 -150 -153 -146 -63 -68 -53 -26 -30 -45 -40 -22 -11 -5 -8 -11 -25 -16 -127 -128 -81 -60 -41
-29 -81 -7 -108 -50 -142 -78 -84 -176 -124 -149 -75 -0 -124 -61 -83 -82 -55 -56 -44 -24 -29 -57 -62 -55 -65 -57 -50 -46 -45 -35 -47 -37 -12 -8 -3 -13 -10 -20 -32 -40 -42 -87 -170
-48 -0 -13 -92 -48 -33 -36 -0 -0 -0 -0 -0 -0 -178 -79 -129 -106 -80 -49 -65 -76 -112 -104 -122 -90 -57 -25 -31 -33 -30 -30 -18 -18 -14 -7 -2 -5 -0 -1 -1 -2 -12 -163 -128
-34 -7 -23 -10 -52 -33 -31 -3 -0 -0 -0 -0 -0 -26 -88 -99 -97 -77 -91 -82 -270 -195 -179 -185 -124 -80 -66 -47 -40 -49 -27 -32 -16 -10 -5 -2 -2 -0 -0 -0 -0 -0 -116 -102
-22 -7 -2 -2 -2 -6 -0 -0 -0 -0 -0 -0 -0 -79 -15 -187 -139 -111 -127 -142 -267 -170 -138 -121 -74 -46 -53 -101 -96 -71 -71 -73 -55 -31 -20 -17 -5 -3 -3 -0 -59 -3 -156 -106
-36 -2 -0 -0 -0 -0 -12 -0 -0 -0 -0 -0 -0 -0 -0 -146 -149 -147 -160 -166 -282 -351 -160 -124 -173 -280 -344 -351 -314 -338 -256 -175 -134 -104 -80 -49 -18 -9 -7 -6 -27 -25 -107 -88
-29 -15 -0 -0 -0 -0 -0 -0 -0 -0 -0 -0 -0 -0 -0 -0 -29 -125 -209 -250 -537 -178 -214 -234 -236 -289 -274 -249 -211 -149 -119 -91 -49 -54 -46 -31 -31 -28 -32 -35 -47 -57 -87 -45
-33 -25 -0 -0 -0 -0 -0 -0 -0 -0 -0 -0 -0 -0 -0 -0 -0 -8 -149 -0 -423 -199 -228 -249 -292 -315 -247 -207 -191 -149 -78 -71 -75 -72 -178 -181 -135 -77 -63 -55 -46 -53 -21 -29
-24 -0 -0 -0 -0 -0 -0 -0 -0 -0 -0 -0 -0 -0 -0 -0 -0 -0 -133 -46 -354 -226 -345 -286 -286 -246 -191 -161 -153 -130 -109 -84 -123 -191 -263 -274 -164 -132 -123 -50 -27 -0 -4 -4
-0 -0 -0 -0 -0 -0 -0 -0 -0 -0 -0 -0 -0 -0 -0 -0 -0 -0 -0 -510 -350 -291 -252 -250 -262 -233 -219 -211 -196 -159 -129 -122 -127 -188 -118 -0 -332 -158 -72 -76 -3 -6 -0 -50
-0 -0 -0 -0 -0 -0 -0 -0 -0 -0 -0 -0 -0 -0 -0 -0 -0 -0 -598 -291 -221 -223 -208 -195 -200 -202 -234 -199 -144 -170 -155 -119 -108 -201 -168 -0 -289 -145 -53 -57 -0 -4 -0 -2
-0 -0 -0 -0 -0 -0 -0 -0 -0 -0 -0 -0 -0 -0 -0 -0 -0 -572 -297 -206 -197 -198 -191 -196 -172 -128 -103 -54 -36 -50 -130 -84 -89 -159 -194 -0 -192 -48 -27 -13 -2 -0 -4 -0
-0 -0 -0 -0 -0 -0 -0 -0 -0 -0 -0 -0 -0 -0 -0 -0 -0 -332 -216 -203 -199 -178 -163 -139 -158 -99 -57 -52 -50 -48 -36 -46 -47 -96 -243 -205 -200 -47 -28 -0 -4 -0 -30 -24
-0 -0 -0 -0 -0 -0 -0 -0 -0 -0 -0 -0 -0 -0 -0 -0 -260 -173 -126 -128 -116 -142 -284 -138 -136 -118 -93 -85 -76 -50 -44 -37 -30 -47 -174 -74 -123 -97 -29 -7 -32 -4 -8 -24
-0 -0 -0 -0 -0 -0 -0 -0 -388 -0 -0 -0 -0 -184 -33 -0 -306 -131 -96 -124 -148 -118 -95 -149 -184 -163 -123 -104 -127 -111 -66 -39 -18 -28 -88 -264 -211 -104 -20 -5 -0 -16 -24 -5
-0 -0 -0 -0 -0 -0 -0 -42 -268 -279 -266 -240 -203 -0 -0 -367 -144 -100 -155 -108 -84 -82 -76 -15 -89 -152 -111 -66 -146 -110 -75 -37 -24 -22 -66 -219 -0 -32 -90 -10 -4 -0 -0 -0
-0 -0 -0 -0 -0 -0 -0 -0 -0 -0 -0 -0 -0 -0 -0 -150 -0 -39 -27 -47 -77 -55 -116 -69 -43 -331 -316 -93 -118 -97 -68 -45 -34 -32 -53 -91 -0 -0 -55 -21 -11 -7 -0 -1
-0 -0 -0 -0 -0 -0 -0 -0 -0 -0 -0 -0 -0 -0 -0 -26 -29 -12 -15 -7 -2 -3 -61 -55 -115 -96 -112 -106 -123 -90 -66 -45 -31 -44 -40 -32 -110 -0 -0 -7 -37 -47 -33 -5
-0 -0 -0 -0 -0 -0 -0 -0 -0 -0 -0 -0 -0 -0 -0 -35 -11 -5 -7 -3 -48 -50 -52 -33 -40 -314 -140 -125 -149 -106 -72 -42 -48 -56 -30 -24 -52 -0 -0 -0 -7 -19 -57 -22
-0 -0 -0 -0 -0 -0 -0 -0 -0 -0 -0 -0 -0 -0 -0 -0 -9 -27 -40 -38 -36 -37 -46 -26 -28 -20 -415 -267 -144 -133 -73 -45 -54 -64 -37 -35 -60 -162 -17 -0 -0 -6 -21 -22
-0 -0 -0 -0 -0 -0 -0 -0 -0 -0 -0 -0 -0 -0 -0 -0 -0 -2 -5 -13 -19 -15 -13 -30 -20 -400 -369 -366 -182 -133 -64 -59 -75 -85 -60 -50 -50 -143 -99 -0 -0 -2 -21 -22
-0 -0 -0 -0 -0 -0 -0 -0 -0 -0 -0 -0 -0 -0 -16 -46 -15 -13 -20 -48 -34 -50 -56 -56 -43 -53 -388 -343 -223 -109 -68 -59 -45 -100 -86 -88 -71 -36 -138 -163 -145 -113 -15 -13
Wind_Speed
5 nan nan nan nan nan nan nan nan nan nan nan nan nan nan 18 nan 14 nan nan 15 20 18 16 11 6 9 15 18 23 20 17 nan 15 20 14 16 nan 14 15 17 17 19 19
10 nan nan nan nan nan nan nan nan nan nan nan nan 24 nan 20 21 20 21 17 19 18 18 17 14 16 18 21 24 21 24 24 20 16 17 17 16 18 20 18 15 14 17 19
3 nan nan nan nan nan nan nan nan 8 8 10 12 26 nan 16 14 12 12 10 12 nan 19 14 16 20 24 28 30 28 29 30 28 25 20 17 14 15 21 23 21 17 18 16
6 nan nan nan nan nan nan nan nan 8 3 7 8 nan nan nan 12 10 9 10 15 17 14 12 15 16 21 25 25 30 31 32 27 27 25 29 26 22 25 26 24 24 25 26
nan nan nan nan nan nan nan nan nan 7 10 9 nan 9 10 nan nan 12 4 8 13 16 14 14 14 16 14 15 22 26 29 31 32 32 33 32 30 29 30 30 29 29 29 28
2 nan nan nan nan 5 nan nan nan 6 5 nan nan 7 nan nan 8 9 6 2 8 9 10 10 8 12 14 16 20 23 27 30 33 35 37 39 36 32 33 33 30 29 33 35
nan nan nan nan nan nan nan nan nan nan nan nan nan 8 3 nan nan 9 9 7 6 1 3 8 9 11 13 15 18 21 25 30 30 32 35 38 35 35 34 33 34 34 37 42
8 nan nan nan nan nan nan nan nan nan nan nan nan nan nan nan 4 8 6 3 nan 9 8 16 12 14 16 20 23 26 29 29 34 35 37 37 39 36 35 39 38 38 41 45
nan nan nan nan nan nan nan nan nan nan nan nan nan nan nan nan nan 16 10 5 nan 8 8 14 16 17 17 21 28 31 33 33 35 39 41 42 43 39 38 40 nan 44 47 50
5 nan nan nan nan nan nan nan nan nan nan nan nan nan nan nan 14 20 18 19 nan 21 18 23 23 24 23 26 31 33 33 33 34 38 40 40 43 41 39 38 38 40 47 54
11 nan nan nan nan nan nan nan nan nan nan nan nan nan nan nan nan 21 nan nan nan 28 27 29 30 29 29 31 33 33 33 34 34 36 39 40 41 41 39 37 35 38 45 48
6 nan nan nan nan nan nan nan nan nan nan nan nan nan nan nan nan nan nan nan nan 32 33 32 33 35 35 35 38 40 38 39 39 39 40 43 45 47 42 41 40 38 36 31
nan nan nan nan nan nan nan nan nan nan nan nan nan nan nan nan nan nan nan nan 37 40 38 33 34 36 38 38 37 38 39 39 40 43 nan nan 43 45 40 40 39 36 32 28
nan nan nan nan nan nan nan nan nan nan nan nan nan nan nan nan nan nan nan 41 45 42 38 36 35 36 39 40 39 38 37 38 38 40 nan nan nan 39 40 38 34 34 32 nan
nan nan nan nan nan nan nan nan nan nan nan nan nan nan nan nan nan nan 30 34 36 35 34 36 37 40 43 43 42 42 41 42 42 40 nan nan nan 37 37 35 32 31 35 nan
nan nan nan nan nan nan nan nan nan nan nan nan nan nan nan nan nan 37 33 33 32 32 35 38 41 44 45 47 47 48 48 46 46 43 nan nan 34 35 33 34 34 30 30 nan
nan nan nan nan nan nan nan nan nan nan nan nan nan nan nan nan nan 38 38 37 34 34 37 42 45 49 50 51 55 55 53 51 48 45 nan nan 36 39 32 30 33 31 nan nan
nan nan nan nan nan nan nan nan nan nan nan nan nan nan nan nan nan 33 33 37 35 nan 40 44 48 50 50 53 54 52 53 50 48 44 41 nan 35 38 36 30 27 29 27 nan
nan nan nan nan nan nan nan nan nan nan nan nan nan nan nan nan nan 32 40 39 39 42 43 45 47 48 50 50 50 52 52 51 47 42 41 nan nan 35 33 30 25 27 26 23
nan nan nan nan nan nan nan nan nan nan nan nan nan nan nan nan nan nan nan 46 44 45 nan nan nan nan nan nan 57 54 52 52 47 41 39 nan nan nan 33 26 24 27 27 24
nan nan nan nan nan nan nan nan nan nan nan nan nan nan nan nan nan nan nan nan 48 48 nan nan nan nan 50 51 56 51 51 47 43 43 40 nan nan nan nan 25 24 26 28 25
nan nan nan nan nan nan nan nan nan nan nan nan nan nan nan nan nan 48 nan nan nan nan 47 nan nan 45 42 46 47 44 45 43 44 40 37 32 nan nan nan nan nan 24 25 24
nan nan nan nan nan nan nan nan nan nan nan nan nan nan nan nan nan nan nan nan nan nan nan nan nan 43 39 45 46 42 37 45 40 37 34 31 nan nan nan nan nan nan nan nan
nan nan nan nan nan nan nan nan nan nan nan nan nan nan nan nan nan nan nan nan nan nan nan nan nan 46 40 46 48 39 42 43 39 35 32 30 32 nan nan nan nan nan nan nan
nan nan nan nan nan nan nan nan nan nan nan nan nan nan nan nan nan nan nan nan nan nan 45 nan 43 38 38 39 43 45 42 41 35 31 32 26 30 nan nan nan nan nan nan nan
nan nan nan nan nan nan nan nan nan nan nan nan nan nan nan nan nan nan nan nan nan 38 37 37 36 38 32 33 36 41 40 38 32 32 28 29 26 25 nan nan nan nan nan nan
Wind_Direction
300 nan nan nan nan nan nan nan nan nan nan nan nan nan nan 61 nan 75 nan nan 64 67 72 76 68 23 9 10 10 10 11 358 nan 349 350 336 341 nan 338 330 331 319 310 310
181 nan nan nan nan nan nan nan nan nan nan nan nan 94 nan 72 80 68 67 63 61 63 62 69 50 38 15 12 15 15 14 8 7 5 15 359 341 332 340 334 321 312 305 306
167 nan nan nan nan nan nan nan nan 99 164 137 136 119 nan 90 93 75 83 82 79 nan 57 50 39 29 22 17 15 15 7 9 6 1 342 314 310 289 301 310 317 322 328 317
134 nan nan nan nan nan nan nan nan 124 157 136 142 nan nan nan 98 57 65 70 77 77 70 58 41 29 21 15 7 5 3 8 6 352 335 340 338 330 327 319 306 310 316 314
nan nan nan nan nan nan nan nan nan 231 243 190 nan 187 129 nan nan 93 82 63 59 52 49 48 39 33 13 360 3 2 4 360 357 351 350 343 337 322 305 299 298 307 299 303
119 nan nan nan nan 61 nan nan nan 218 248 nan nan 227 nan nan 60 111 113 81 69 70 26 31 14 353 354 349 355 356 357 356 350 349 347 347 341 324 306 300 295 287 289 291
nan nan nan nan nan nan nan nan nan nan nan nan nan 259 90 nan nan 79 65 121 123 48 330 321 336 332 334 339 339 345 349 356 343 343 345 348 339 325 321 309 302 292 280 280
154 nan nan nan nan nan nan nan nan nan nan nan nan nan nan nan 42 8 69 164 nan 170 233 272 298 314 329 342 340 337 337 336 332 335 341 336 331 323 312 311 305 291 281 273
nan nan nan nan nan nan nan nan nan nan nan nan nan nan nan nan nan 309 336 348 nan 351 291 286 300 321 329 329 331 331 329 331 334 336 334 338 333 323 323 313 nan 296 289 278
186 nan nan nan nan nan nan nan nan nan nan nan nan nan nan nan 323 318 331 348 nan 321 319 311 308 310 312 318 318 320 322 328 332 333 333 336 333 329 322 321 320 307 294 288
258 nan nan nan nan nan nan nan nan nan nan nan nan nan nan nan nan 334 nan nan nan 325 325 320 311 308 307 310 312 313 320 322 324 325 327 331 330 326 322 325 318 308 295 290
247 nan nan nan nan nan nan nan nan nan nan nan nan nan nan nan nan nan nan nan nan 324 325 314 308 302 304 305 308 312 315 316 319 318 324 329 331 328 329 328 328 320 314 313
nan nan nan nan nan nan nan nan nan nan nan nan nan nan nan nan nan nan nan nan 321 323 314 306 299 301 304 304 308 312 313 315 319 317 nan nan 330 328 327 325 328 325 317 316
nan nan nan nan nan nan nan nan nan nan nan nan nan nan nan nan nan nan nan 317 311 309 307 305 305 309 307 307 309 310 309 311 310 311 nan nan nan 328 322 322 319 316 322 nan
nan nan nan nan nan nan nan nan nan nan nan nan nan nan nan nan nan nan 307 302 304 310 313 314 312 307 305 304 305 307 311 309 310 311 nan nan nan 329 319 317 316 318 322 nan
nan nan nan nan nan nan nan nan nan nan nan nan nan nan nan nan nan 303 308 308 314 313 309 308 305 303 303 305 306 307 309 310 308 309 nan nan 320 321 315 313 311 316 325 nan
nan nan nan nan nan nan nan nan nan nan nan nan nan nan nan nan nan 310 316 313 306 305 305 303 303 303 305 305 304 309 308 306 306 306 nan nan 314 316 311 310 306 311 nan nan
nan nan nan nan nan nan nan nan nan nan nan nan nan nan nan nan nan 305 304 304 306 nan 297 296 297 298 299 298 302 302 303 306 305 304 304 nan 309 310 307 307 300 302 312 nan
nan nan nan nan nan nan nan nan nan nan nan nan nan nan nan nan nan 303 304 303 301 299 298 297 297 298 298 301 302 304 302 302 301 304 302 nan nan 305 304 302 295 293 299 303
nan nan nan nan nan nan nan nan nan nan nan nan nan nan nan nan nan nan nan 305 308 305 nan nan nan nan nan nan 301 302 301 299 302 302 299 nan nan nan 295 297 289 280 286 290
nan nan nan nan nan nan nan nan nan nan nan nan nan nan nan nan nan nan nan nan 303 303 nan nan nan nan 306 304 304 308 304 305 301 294 294 nan nan nan nan 300 287 277 285 284
nan nan nan nan nan nan nan nan nan nan nan nan nan nan nan nan nan 295 nan nan nan nan 301 nan nan 310 312 308 306 307 308 306 299 294 295 296 nan nan nan nan nan 274 280 284
nan nan nan nan nan nan nan nan nan nan nan nan nan nan nan nan nan nan nan nan nan nan nan nan nan 313 308 306 308 310 311 301 299 296 295 294 nan nan nan nan nan nan nan nan
nan nan nan nan nan nan nan nan nan nan nan nan nan nan nan nan nan nan nan nan nan nan nan nan nan 310 307 309 313 320 302 299 300 300 293 293 288 nan nan nan nan nan nan nan
nan nan nan nan nan nan nan nan nan nan nan nan nan nan nan nan nan nan nan nan nan nan 301 nan 302 305 315 314 316 313 311 300 299 297 297 290 285 nan nan nan nan nan nan nan
nan nan nan nan nan nan nan nan nan nan nan nan nan nan nan nan nan nan nan nan nan 302 295 297 301 308 317 313 312 308 305 303 302 298 296 287 286 282 nan nan nan nan nan nan